Location: Grieser Field
(39.7333°N, 81.7975°W)
Time: 07:52:14
(UTC-04:00)

HST - Visible Passes

Search period start: 01 November 2014 00:00
Search period end: 10 November 2014 23:00
Orbit: 546 x 550 km, 28.5° (Epoch: 31 October)

Date Brightness Start Highest point End Pass type
(mag) Time Alt. Az. Time Alt. Az. Time Alt. Az.
01 Nov 3.2 19:58:16 10° SW 20:00:39 15° S 20:02:40 11° SSE visible
02 Nov 3.3 18:51:08 10° SW 18:53:10 13° SSW 18:55:13 10° SSE visible
03 Nov 3.5 18:44:14 10° SW 18:45:40 12° SSW 18:47:06 10° S visible
